SCP
0 0 0 0 0 0 0 0 0 0 0 0 0 0 0 0 0 0 0 0 0 0 0 0 0 0 0 0 0 0 0 0
0 0 0 0 0 0 0 0 0 0 0 0 0 0 0 0 0 0 0 0 0 0 0 0 0 0 0 0 0 0 -0 -0
0 0 0 0 0 0 0 0 0 0 0 0 0 0 0 0 0 0 0 0 0 0 0 0 0 0 0 0 0 0 0 -0
0 0 0 0 0 0 0 0 0 0 0 0 0 0 0 0 0 0 0 0 0 0 0 0 0 0 0 0 0 0 0 -0
0 0 0 0 0 0 0 0 0 0 0 0 0 0 0 0 0 0 0 0 0 0 0 0 0 0 0 0 0 0 0 0
0 0 0 0 0 0 0 0 0 0 0 0 0 0 0 0 0 0 0 0 0 0 0 0 0 0 0 0 0 0 0 0
0 0 0 0 0 0 0 0 0 0 0 0 0 0 0 0 0 0 0 0 0 0 0 0 0 0 0 0 0 0 0 0
0 0 0 0 0 0 0 0 0 0 0 0 0 0 0 0 0 0 0 0 0 0 0 0 0 0 0 0 0 0 0 0
0 0 0 0 0 0 0 0 0 0 0 0 0 0 0 0 0 0 0 0 0 0 0 0 0 0 0 0 0 0 0 0
0 0 0 0 0 0 0 0 0 0 0 0 0 0 0 0 0 0 0 0 0 0 0 0 0 0 0 0 0 0 0 0
0 0 0 0 0 0 0 0 0 0 0 0 0 0 0 0 0 0 0 0 0 0 0 0 0 0 0 0 0 0 0 0
0 0 0 0 0 0 0 0 0 0 0 0 0 0 0 0 0 0 0 0 0 0 0 0 0 0 0 0 0 0 0 0
0 0 0 0 0 0 0 0 0 0 0 0 0 0 0 0 0 0 0 0 0 0 0 0 0 0 0 0 0 0 0 0
0 0 0 0 0 0 0 0 0 0 0 0 0 0 0 0 0 0 0 0 0 0 0 0 0 0 0 0 0 0 0 0
0 0 0 0 0 0 0 0 0 0 0 0 0 0 0 0 0 0 0 0 0 0 0 0 0 0 0 0 0 0 0 0
0 0 0 0 0 0 0 0 0 0 0 0 0 0 0 0 0 0 0 0 0 0 0 0 0 0 0 0 0 0 0 0
0 0 0 0 0 0 0 0 0 0 0 0 0 0 0 0 0 0 0 0 0 0 0 0 0 0 0 0 0 0 0 0
0 0 0 0 0 0 0 0 0 0 0 0 0 0 0 0 0 0 0 0 0 0 0 0 0 0 0 0 0 0 0 0
0 0 0 0 0 0 0 0 0 0 0 0 0 0 0 0 0 0 0 0 0 0 0 0 0 0 0 0 0 0 0 0
0 0 0 0 0 0 0 0 0 0 0 0 0 0 0 0 0 0 0 0 0 0 0 0 0 0 0 0 0 0 0 0
Wind_Speed_500mb
88 76 64 53 45 38 29 21 15 12 15 19 22 29 38 44 44 44 43 42 39 35 31 25 24 28 30 34 34 37 42 46
87 76 66 59 50 41 31 24 15 13 13 13 18 27 37 41 40 42 43 41 39 36 31 26 24 26 28 30 31 33 38 43
87 80 73 65 56 46 36 26 18 12 11 9 15 24 33 36 38 41 41 41 38 35 31 26 24 27 28 29 28 33 36 41
85 87 81 71 61 51 40 30 20 13 9 6 12 21 30 33 36 40 41 40 39 35 31 26 27 29 32 31 26 28 32 36
84 90 85 74 64 54 44 34 24 14 9 3 9 19 26 30 35 39 40 40 39 35 30 25 25 33 37 32 26 26 27 31
87 95 89 80 70 59 49 37 26 16 12 5 5 16 23 27 33 38 40 41 40 36 29 22 24 37 40 34 25 26 27 29
86 96 95 87 76 66 55 42 30 21 16 9 2 13 19 24 32 35 35 36 36 34 29 22 25 33 39 33 26 23 26 26
89 99 101 94 81 72 59 46 34 26 22 13 3 9 13 19 27 28 31 34 36 36 33 26 24 36 37 33 27 24 24 25
85 93 99 93 81 71 62 49 38 32 27 18 9 7 8 16 20 24 28 31 35 37 37 33 30 37 40 40 29 22 20 22
79 86 95 95 85 78 66 54 44 37 31 23 14 8 5 11 16 20 25 29 32 34 35 36 34 36 43 45 34 21 18 17
70 79 86 91 90 82 71 60 49 42 35 28 19 12 6 8 12 16 21 26 30 33 35 36 36 36 45 46 37 26 19 10
61 68 77 88 94 85 72 60 48 46 41 33 25 18 11 7 9 14 19 23 24 29 33 36 39 38 47 49 41 36 27 12
59 66 73 91 95 86 73 60 55 51 46 38 30 23 16 10 8 11 15 18 22 26 30 36 40 44 50 51 41 36 27 12
57 63 77 93 94 86 75 67 61 57 51 45 37 29 22 15 9 7 9 13 18 25 30 36 41 48 52 52 42 37 27 16
62 72 85 97 92 81 76 68 63 61 56 50 41 34 26 19 12 7 5 8 14 22 29 35 40 50 53 54 46 33 22 18
67 75 86 97 95 86 76 69 68 64 58 53 46 37 30 23 15 8 3 5 13 21 27 31 38 40 43 54 52 36 25 21
73 79 89 98 96 90 78 71 70 69 63 57 49 42 34 25 17 10 4 6 11 17 22 25 26 29 40 47 51 39 25 15
78 82 92 98 98 89 81 74 70 66 62 57 51 43 36 28 19 12 7 4 5 8 15 18 22 27 34 41 47 38 24 14
76 82 93 97 95 87 80 74 70 65 58 54 50 44 37 31 23 16 9 6 1 4 8 12 16 22 25 31 33 33 28 21
74 83 91 95 94 86 79 75 74 69 63 55 49 44 37 32 25 18 13 11 6 3 3 6 11 15 21 24 29 34 36 31
Wind_Direction_500mb
208 207 210 215 216 221 227 238 251 289 319 334 346 352 357 350 348 358 2 359 358 356 347 336 334 338 345 354 359 5 10 12
207 207 211 210 213 218 223 234 243 275 312 334 349 354 358 348 352 1 5 4 4 1 358 348 346 341 342 352 356 2 7 11
209 206 206 208 212 213 219 224 235 267 301 329 353 357 358 348 358 5 8 6 8 8 3 356 353 347 345 347 353 359 3 8
207 206 207 207 209 212 215 218 223 247 273 313 357 360 358 355 5 10 11 8 11 11 8 4 0 354 351 345 344 356 4 9
207 206 207 208 208 210 212 214 217 226 238 285 352 3 1 2 10 14 14 14 13 15 14 12 4 8 354 349 344 351 357 10
211 207 206 206 207 206 210 212 209 212 214 214 346 11 3 7 16 18 17 18 18 15 15 17 13 21 356 353 353 356 352 2
216 211 209 208 207 206 206 206 204 202 201 196 312 27 11 14 22 20 18 22 21 20 19 18 15 20 1 358 351 352 353 354
222 217 212 210 207 206 202 200 200 197 194 186 176 50 23 25 29 19 20 24 25 24 22 20 10 17 1 0 350 346 349 349
225 218 214 209 205 203 201 198 198 192 189 185 174 97 41 41 32 25 24 24 26 26 23 16 17 20 10 0 352 345 346 347
231 221 214 206 202 199 197 195 195 190 189 184 174 143 86 57 44 31 27 25 23 24 22 19 14 11 15 355 357 352 351 348
224 219 213 202 199 197 196 195 191 189 187 184 178 164 129 82 59 40 34 29 26 21 19 20 17 9 13 3 2 357 355 8
221 218 209 200 197 196 196 192 189 185 187 186 179 175 159 122 74 47 35 30 24 24 18 18 18 17 13 8 4 360 357 15
209 205 202 197 196 194 193 188 189 187 188 186 182 180 172 155 105 64 43 26 21 22 22 19 18 24 16 11 8 0 7 36
204 199 195 195 196 194 189 189 188 188 188 187 184 184 178 167 140 90 51 31 25 22 19 21 17 22 20 16 17 12 27 66
197 196 192 192 193 196 192 188 190 189 189 188 186 187 182 175 165 135 79 34 31 32 25 16 18 20 14 20 23 26 41 64
201 196 194 190 191 190 193 191 189 190 189 188 187 189 188 184 175 163 122 47 35 31 27 17 18 21 13 19 20 25 35 49
201 198 193 192 189 190 191 193 193 190 190 190 190 190 190 190 182 179 171 58 36 29 24 22 20 14 13 20 20 20 32 29
204 197 193 191 190 190 192 192 194 196 192 190 191 193 194 190 189 196 193 131 59 23 25 18 14 14 13 17 21 19 18 28
204 197 194 192 191 192 193 193 193 195 196 194 194 193 192 192 193 196 208 222 52 29 16 16 15 12 15 18 19 25 31 38
202 198 193 192 193 193 193 195 193 192 192 193 195 196 194 198 196 198 214 238 248 271 324 18 17 9 6 10 15 30 35 36
Wind_Speed_850mb
88 76 64 53 45 38 29 21 15 12 15 19 22 29 38 44 44 44 43 42 39 35 31 25 24 28 30 34 34 37 42 46
87 76 66 59 50 41 31 24 15 13 13 13 18 27 37 41 40 42 43 41 39 36 31 26 24 26 28 30 31 33 38 43
87 80 73 65 56 46 36 26 18 12 11 9 15 24 33 36 38 41 41 41 38 35 31 26 24 27 28 29 28 33 36 41
85 87 81 71 61 51 40 30 20 13 9 6 12 21 30 33 36 40 41 40 39 35 31 26 27 29 32 31 26 28 32 36
84 90 85 74 64 54 44 34 24 14 9 3 9 19 26 30 35 39 40 40 39 35 30 25 25 33 37 32 26 26 27 31
87 95 89 80 70 59 49 37 26 16 12 5 5 16 23 27 33 38 40 41 40 36 29 22 24 37 40 34 25 26 27 29
86 96 95 87 76 66 55 42 30 21 16 9 2 13 19 24 32 35 35 36 36 34 29 22 25 33 39 33 26 23 26 26
89 99 101 94 81 72 59 46 34 26 22 13 3 9 13 19 27 28 31 34 36 36 33 26 24 36 37 33 27 24 24 25
85 93 99 93 81 71 62 49 38 32 27 18 9 7 8 16 20 24 28 31 35 37 37 33 30 37 40 40 29 22 20 22
79 86 95 95 85 78 66 54 44 37 31 23 14 8 5 11 16 20 25 29 32 34 35 36 34 36 43 45 34 21 18 17
70 79 86 91 90 82 71 60 49 42 35 28 19 12 6 8 12 16 21 26 30 33 35 36 36 36 45 46 37 26 19 10
61 68 77 88 94 85 72 60 48 46 41 33 25 18 11 7 9 14 19 23 24 29 33 36 39 38 47 49 41 36 27 12
59 66 73 91 95 86 73 60 55 51 46 38 30 23 16 10 8 11 15 18 22 26 30 36 40 44 50 51 41 36 27 12
57 63 77 93 94 86 75 67 61 57 51 45 37 29 22 15 9 7 9 13 18 25 30 36 41 48 52 52 42 37 27 16
62 72 85 97 92 81 76 68 63 61 56 50 41 34 26 19 12 7 5 8 14 22 29 35 40 50 53 54 46 33 22 18
67 75 86 97 95 86 76 69 68 64 58 53 46 37 30 23 15 8 3 5 13 21 27 31 38 40 43 54 52 36 25 21
73 79 89 98 96 90 78 71 70 69 63 57 49 42 34 25 17 10 4 6 11 17 22 25 26 29 40 47 51 39 25 15
78 82 92 98 98 89 81 74 70 66 62 57 51 43 36 28 19 12 7 4 5 8 15 18 22 27 34 41 47 38 24 14
76 82 93 97 95 87 80 74 70 65 58 54 50 44 37 31 23 16 9 6 1 4 8 12 16 22 25 31 33 33 28 21
74 83 91 95 94 86 79 75 74 69 63 55 49 44 37 32 25 18 13 11 6 3 3 6 11 15 21 24 29 34 36 31
Wind_Direction_850mb
208 207 210 215 216 221 227 238 251 289 319 334 346 352 357 350 348 358 2 359 358 356 347 336 334 338 345 354 359 5 10 12
207 207 211 210 213 218 223 234 243 275 312 334 349 354 358 348 352 1 5 4 4 1 358 348 346 341 342 352 356 2 7 11
209 206 206 208 212 213 219 224 235 267 301 329 353 357 358 348 358 5 8 6 8 8 3 356 353 347 345 347 353 359 3 8
207 206 207 207 209 212 215 218 223 247 273 313 357 360 358 355 5 10 11 8 11 11 8 4 0 354 351 345 344 356 4 9
207 206 207 208 208 210 212 214 217 226 238 285 352 3 1 2 10 14 14 14 13 15 14 12 4 8 354 349 344 351 357 10
211 207 206 206 207 206 210 212 209 212 214 214 346 11 3 7 16 18 17 18 18 15 15 17 13 21 356 353 353 356 352 2
216 211 209 208 207 206 206 206 204 202 201 196 312 27 11 14 22 20 18 22 21 20 19 18 15 20 1 358 351 352 353 354
222 217 212 210 207 206 202 200 200 197 194 186 176 50 23 25 29 19 20 24 25 24 22 20 10 17 1 0 350 346 349 349
225 218 214 209 205 203 201 198 198 192 189 185 174 97 41 41 32 25 24 24 26 26 23 16 17 20 10 0 352 345 346 347
231 221 214 206 202 199 197 195 195 190 189 184 174 143 86 57 44 31 27 25 23 24 22 19 14 11 15 355 357 352 351 348
224 219 213 202 199 197 196 195 191 189 187 184 178 164 129 82 59 40 34 29 26 21 19 20 17 9 13 3 2 357 355 8
221 218 209 200 197 196 196 192 189 185 187 186 179 175 159 122 74 47 35 30 24 24 18 18 18 17 13 8 4 360 357 15
209 205 202 197 196 194 193 188 189 187 188 186 182 180 172 155 105 64 43 26 21 22 22 19 18 24 16 11 8 0 7 36
204 199 195 195 196 194 189 189 188 188 188 187 184 184 178 167 140 90 51 31 25 22 19 21 17 22 20 16 17 12 27 66
197 196 192 192 193 196 192 188 190 189 189 188 186 187 182 175 165 135 79 34 31 32 25 16 18 20 14 20 23 26 41 64
201 196 194 190 191 190 193 191 189 190 189 188 187 189 188 184 175 163 122 47 35 31 27 17 18 21 13 19 20 25 35 49
201 198 193 192 189 190 191 193 193 190 190 190 190 190 190 190 182 179 171 58 36 29 24 22 20 14 13 20 20 20 32 29
204 197 193 191 190 190 192 192 194 196 192 190 191 193 194 190 189 196 193 131 59 23 25 18 14 14 13 17 21 19 18 28
204 197 194 192 191 192 193 193 193 195 196 194 194 193 192 192 193 196 208 222 52 29 16 16 15 12 15 18 19 25 31 38
202 198 193 192 193 193 193 195 193 192 192 193 195 196 194 198 196 198 214 238 248 271 324 18 17 9 6 10 15 30 35 36